Location: Hanover
(52.3667°N, 9.7167°E)
Time: 03:45:53
(UTC+02:00)

ARIANE 6 FM1 Upper Stage - Pass Details

Date: 24 September 2024
Orbit: 564 x 594 km, 62.0° (Epoch: 06 October)

Event Time Altitude Azimuth Distance (km) Brightness Sun altitude
Rises 20:32:36 0° 216° (SW) 2,777 6.5 -12.7°
Reaches altitude 10° 20:34:50 10° 213° (SSW) 1,888 5.6 -13.1°
Maximum altitude 20:39:03 62° 134° (SE) 660 2.7 -13.7°
Drops below altitude 10° 20:43:20 10° 53° (NE) 1,920 5.0 -14.3°
Enters shadow 20:43:39 - 53° (NE) 2,044 5.2 -14.3°
